DW7898 Weather Reports


time (UTC)temp
F
wind
direction
speed
knots
gust
knots
rain 1hr
in
rain 24hr
in
rain mn
in
humidity
%
barometer
mb
20260904135351 88 166 2.6 11.3 0.00 0.00 0.00 58 1020.2
20260904134347 88 101 7.8 13.0 0.00 0.00 0.00 57 1020.5
20260904133401 89 160 4.3 12.2 0.00 0.00 0.00 58 1020.5
20260904132343 88 138 5.2 10.4 0.00 0.00 0.00 57 1020.5
20260904131359 88 120 7.0 15.6 0.00 0.00 0.00 58 1020.4
20260904130346 89 133 7.8 11.3 0.00 0.00 0.00 56 1020.5
20260904125351 89 136 8.7 13.0 0.00 0.00 0.00 56 1020.5
20260904124348 89 87 6.1 13.0 0.00 0.00 0.00 56 1020.6
20260904123357 89 134 3.5 13.0 0.00 0.00 0.00 56 1020.6
20260904122402 89 118 7.0 12.2 0.00 0.00 0.00 55 1020.7
20260904121356 90 130 6.1 13.0 0.00 0.00 0.00 55 1020.7
20260904120349 90 146 6.1 13.9 0.00 0.00 0.00 55 1020.8
20260904115357 90 133 6.1 11.3 0.00 0.00 0.00 54 1021.1
20260904114352 91 134 6.1 12.2 0.00 0.00 0.00 53 1020.9
20260904113344 91 128 6.1 11.3 0.00 0.00 0.00 50 1021.1
20260904112359 92 134 3.5 8.7 0.00 0.00 0.00 49 1021.1
20260904111352 92 123 4.3 9.6 0.00 0.00 0.00 47 1021.0
20260904110348 91 149 4.3 7.8 0.00 0.00 0.00 47 1021.3
20260904105357 91 137 4.3 8.7 0.00 0.00 0.00 47 1021.3
20260904104349 92 147 1.7 5.2 0.00 0.00 0.00 47 1021.3
20260904103401 91 197 1.7 6.1 0.00 0.00 0.00 47 1021.4
20260904102358 90 251 3.5 7.0 0.00 0.00 0.00 47 1021.5
20260904101358 89 275 2.6 7.0 0.00 0.00 0.00 47 1021.7
20260904100354 89 233 2.6 5.2 0.00 0.00 0.00 48 1021.6
20260904095402 88 284 2.6 3.5 0.00 0.00 0.00 48 1021.7
20260904094357 88 285 2.6 3.5 0.00 0.00 0.00 48 1021.8
20260904093348 87 285 0.9 2.6 0.00 0.00 0.00 50 1021.8
20260904092339 86 285 1.7 3.5 0.00 0.00 0.00 51 1021.9
20260904091401 85 283 0.9 2.6 0.00 0.00 0.00 53 1021.9
20260904090402 84 274 0.9 2.6 0.00 0.00 0.00 55 1021.9
20260904085359 83 273 1.7 3.5 0.00 0.00 0.00 56 1022.0
20260904084359 83 273 0.9 2.6 0.00 0.00 0.00 61 1021.9
20260904083341 81 273 0.0 2.6 0.00 0.00 0.00 64 1021.9
20260904082358 81 272 0.0 1.7 0.00 0.00 0.00 67 1021.8
20260904081354 80 272 0.9 2.6 0.00 0.00 0.00 69 1021.8
20260904080338 79 270 0.0 4.3 0.00 0.00 0.00 71 1021.6
20260904075357 78 20 0.0 0.0 0.00 0.00 0.00 72 1021.7
20260904074346 78 20 0.0 0.0 0.00 0.00 0.00 72 1021.8
20260904073350 78 21 0.0 0.0 0.00 0.00 0.00 75 1021.8
20260904072341 77 21 0.0 0.0 0.00 0.00 0.00 77 1021.7
20260904071341 76 21 0.0 0.0 0.00 0.00 0.00 79 1021.7
20260904070341 75 20 0.0 0.9 0.00 0.00 0.00 79 1021.8
20260904065400 75 21 0.9 1.7 0.00 0.00 0.00 79 1021.8
20260904064357 75 21 0.0 1.7 0.00 0.00 0.00 81 1021.7
20260904063357 74 21 0.0 1.7 0.00 0.00 0.00 82 1021.6
20260904062349 74 21 0.9 1.7 0.00 0.00 0.00 82 1021.6
20260904061350 73 21 0.0 1.7 0.00 0.00 0.00 82 1021.6
20260904060348 73 21 0.9 1.7 0.00 0.00 0.00 81 1021.5
20260904055400 73 21 0.9 1.7 0.00 0.00 0.00 82 1021.6
20260904054359 73 21 0.0 0.9 0.00 0.00 0.00 82 1021.4
20260904053340 73 21 0.0 0.9 0.00 0.00 0.00 81 1021.4
20260904052357 74 21 0.0 0.0 0.00 0.00 0.00 82 1021.2
20260904051400 74 21 0.0 1.7 0.00 0.00 0.00 81 1021.3
20260904050358 74 21 0.9 1.7 0.00 0.00 0.00 81 1021.3
20260904045350 74 21 0.9 1.7 0.00 0.00 0.00 80 1021.4
20260904044344 74 21 0.9 0.9 0.00 0.00 0.00 80 1021.4
20260904043344 73 21 0.0 0.0 0.00 0.00 0.00 79 1021.4
20260904042359 74 21 0.0 0.0 0.00 0.00 0.00 80 1021.5
20260904041359 74 21 0.0 0.0 0.00 0.00 0.00 80 1021.5
20260904040357 74 21 0.0 1.7 0.00 0.00 0.00 80 1021.6
20260904035402 74 21 0.0 0.0 0.00 0.00 0.00 80 1021.7
20260904034342 74 21 0.0 1.7 0.00 0.00 0.00 81 1021.7
20260904033346 74 21 0.9 2.6 0.00 0.00 0.00 81 1021.7
20260904032338 74 21 1.7 3.5 0.00 0.00 0.00 81 1021.8
20260904031356 75 252 0.0 2.6 0.00 0.00 0.00 82 1022.0
20260904030354 75 251 0.0 1.7 0.00 0.00 0.00 83 1022.0
20260904025355 76 251 0.0 0.9 0.00 0.00 0.00 83 1022.2
20260904024359 76 251 0.0 0.9 0.00 0.00 0.00 83 1022.2
20260904023338 76 251 0.9 3.5 0.00 0.00 0.00 83 1022.3
20260904022337 76 252 0.9 2.6 0.00 0.00 0.00 82 1022.3
20260904021340 76 252 0.0 1.7 0.00 0.00 0.00 81 1022.3
20260904020342 76 252 0.9 1.7 0.00 0.00 0.00 81 1022.5
20260904015400 76 252 0.0 2.6 0.00 0.00 0.00 80 1022.6
20260904014359 77 252 0.9 2.6 0.00 0.00 0.00 79 1022.5
20260904013341 76 252 0.9 1.7 0.00 0.00 0.00 79 1022.6
20260904012356 77 252 0.0 0.9 0.00 0.00 0.00 80 1022.6
20260904011358 77 252 0.9 1.7 0.00 0.00 0.00 80 1022.7
20260904010357 77 252 0.0 1.7 0.00 0.00 0.00 80 1022.8
20260904005349 77 252 0.9 3.5 0.00 0.00 0.00 79 1023.0
20260904004351 77 253 0.9 2.6 0.00 0.00 0.00 78 1022.9
20260904003354 77 253 0.0 0.9 0.00 0.00 0.00 78 1023.1
20260904002355 78 253 0.0 0.9 0.00 0.00 0.00 77 1023.2
20260904001357 78 253 0.0 0.9 0.00 0.00 0.00 77 1023.2
20260904000358 78 253 0.0 0.9 0.00 0.00 0.00 76 1023.3
20260903235355 78 253 0.0 0.9 0.00 0.00 0.00 75 1023.4
20260903234351 78 253 0.9 1.7 0.00 0.00 0.00 75 1023.4
20260903233352 78 253 0.0 1.7 0.00 0.00 0.00 75 1023.5
20260903232348 78 253 0.9 2.6 0.00 0.00 0.00 75 1023.6
20260903231343 78 253 0.9 1.7 0.00 0.00 0.00 74 1023.7
20260903230344 78 253 0.9 2.6 0.00 0.00 0.00 74 1023.6
20260903225401 79 253 1.7 2.6 0.00 0.00 0.00 73 1023.7
20260903224339 79 253 1.7 2.6 0.00 0.00 0.00 73 1023.5
20260903223339 79 253 1.7 3.5 0.00 0.00 0.00 74 1023.6
20260903222339 79 253 0.9 2.6 0.00 0.00 0.00 73 1023.6
20260903221344 79 253 1.7 3.5 0.00 0.00 0.00 73 1023.6
20260903220347 79 253 1.7 3.5 0.00 0.00 0.00 72 1023.6
20260903215340 79 253 1.7 3.5 0.00 0.00 0.00 72 1023.6
20260903214338 79 253 2.6 3.5 0.00 0.00 0.00 72 1023.6
20260903213343 80 253 2.6 3.5 0.00 0.00 0.00 71 1023.5
20260903212341 80 253 0.9 4.3 0.00 0.00 0.00 71 1023.7
20260903211342 80 253 1.7 3.5 0.00 0.00 0.00 71 1023.5
20260903210341 80 254 1.7 3.5 0.00 0.00 0.00 70 1023.6
20260903205400 80 254 2.6 4.3 0.00 0.00 0.00 70 1023.7
20260903204341 80 254 1.7 3.5 0.00 0.00 0.00 70 1023.7
20260903203343 80 255 1.7 4.3 0.00 0.00 0.00 70 1023.7
20260903202357 81 252 1.7 4.3 0.00 0.00 0.00 70 1023.7
20260903201354 81 254 0.9 4.3 0.00 0.00 0.00 70 1023.7
20260903200339 81 251 2.6 4.3 0.00 0.00 0.00 70 1023.8
20260903195339 81 249 1.7 4.3 0.00 0.00 0.00 70 1023.7
20260903194358 81 252 2.6 5.2 0.00 0.00 0.00 70 1023.6
20260903193356 81 223 2.6 6.1 0.00 0.00 0.00 70 1023.4
20260903192350 81 244 2.6 6.1 0.00 0.00 0.00 69 1023.4
20260903191353 82 208 2.6 6.1 0.00 0.00 0.00 68 1023.3
20260903190347 82 238 2.6 5.2 0.00 0.00 0.00 67 1023.1
20260903185355 82 223 0.9 4.3 0.00 0.00 0.00 67 1023.3
20260903184345 82 137 0.9 7.0 0.00 0.00 0.00 66 1023.0
20260903183342 83 214 2.6 6.1 0.00 0.00 0.00 65 1023.0
20260903182347 83 221 3.5 8.7 0.00 0.00 0.00 64 1022.9
20260903181359 83 209 4.3 8.7 0.00 0.00 0.00 62 1022.8
20260903180348 84 221 4.3 8.7 0.00 0.00 0.00 62 1022.8
20260903175355 84 220 3.5 7.8 0.00 0.00 0.00 60 1022.8
20260903174351 85 180 3.5 7.8 0.00 0.00 0.00 59 1022.7
20260903173344 86 206 5.2 7.8 0.00 0.00 0.00 56 1022.7
20260903172357 86 53 0.9 7.8 0.00 0.00 0.00 55 1022.5
20260903171355 86 230 1.7 8.7 0.00 0.00 0.00 55 1022.6
20260903170346 87 240 3.5 6.1 0.00 0.00 0.00 54 1022.5
20260903165350 87 143 3.5 10.4 0.00 0.00 0.00 54 1022.6
20260903164351 87 246 3.5 8.7 0.00 0.00 0.00 54 1022.6
20260903163347 87 208 4.3 12.2 0.00 0.00 0.00 54 1022.4
20260903162340 87 208 2.6 12.2 0.00 0.00 0.00 54 1022.4
20260903161344 87 260 3.5 12.2 0.00 0.00 0.00 54 1022.5
20260903160340 88 220 6.1 12.2 0.00 0.00 0.00 53 1022.5
20260903155354 88 195 5.2 12.2 0.00 0.00 0.00 53 1022.5
20260903154350 88 187 5.2 14.8 0.00 0.00 0.00 51 1022.6
20260903153344 88 216 7.8 13.0 0.00 0.00 0.00 50 1022.8
20260903152349 88 220 6.1 9.6 0.00 0.00 0.00 48 1022.7
20260903151347 87 189 3.5 8.7 0.00 0.00 0.00 53 1022.7
20260903150346 87 159 3.5 11.3 0.00 0.00 0.00 56 1022.7
20260903145355 86 137 9.6 14.8 0.00 0.00 0.00 56 1022.7
20260903144349 87 136 3.5 13.9 0.00 0.00 0.00 56 1022.8
20260903143347 87 144 3.5 12.2 0.00 0.00 0.00 58 1022.8
20260903142359 88 131 5.2 12.2 0.00 0.00 0.00 56 1022.9
20260903141400 88 210 6.1 11.3 0.00 0.00 0.00 52 1022.9
20260903140356 88 172 1.7 8.7 0.00 0.00 0.00 52 1023.0